User: anonymous   Login
Location: Ash Swamp
(41.5170°N, 74.6157°W)
Time: 17:36:49
(UTC+00:00)
Language:

Sich 1 - Orbit

View from above orbital plane
View from above orbital plane
View from above satellite
View from above satellite

Ground track
Ground track

The orbit data is extracted from the following two-line orbital elements,

1 23657U 95046A   20270.84265153  .00000219  00000-0  22028-4 0  9992
2 23657  82.5287 215.3717 0023741  77.2186 283.1682 14.86184302355348
Epoch (UTC): 26 September 2020 20:13:25
Eccentricity: 0.0023741
inclination: 82.5287°
perigee height: 593 km
apogee height: 626 km
right ascension of ascending node: 215.3717°
argument of perigee: 77.2186°
revolutions per day: 14.86184302
mean anomaly at epoch: 283.1682°
orbit number at epoch: 35534

The dashed part of the orbit path shows where the satellite is in the earth's shadow,  

DLR